TimeMDT,TemperatureF,Dew PointF,Humidity,Sea Level PressureIn,VisibilityMPH,Wind Direction,Wind SpeedMPH,Gust SpeedMPH,PrecipitationIn,Events,Conditions,WindDirDegrees,DateUTC
12:15 AM,42.8,30.2,61,30.04,10.0,Calm,Calm,-,N/A,,Mostly Cloudy,0,2012-10-22 06:15:00
12:55 AM,42.8,30.2,61,30.04,10.0,SSE,3.5,-,N/A,,Overcast,160,2012-10-22 06:55:00
1:15 AM,44.6,32.0,61,30.04,10.0,SSE,6.9,-,N/A,,Mostly Cloudy,150,2012-10-22 07:15:00
1:35 AM,44.6,30.2,57,30.05,10.0,SSE,3.5,-,N/A,,Overcast,160,2012-10-22 07:35:00
1:55 AM,44.6,30.2,57,30.05,10.0,SE,11.5,-,N/A,,Overcast,140,2012-10-22 07:55:00
2:15 AM,44.6,32.0,61,30.05,10.0,SE,12.7,20.7,N/A,,Mostly Cloudy,140,2012-10-22 08:15:00
2:55 AM,41.0,35.6,81,30.05,10.0,SSE,10.4,-,0.04,,Overcast,150,2012-10-22 08:55:00
3:15 AM,41.0,35.6,81,30.06,10.0,SSE,11.5,-,0.02,,Overcast,160,2012-10-22 09:15:00
3:35 AM,39.2,35.6,87,30.05,10.0,SSE,10.4,-,0.03,,Overcast,150,2012-10-22 09:35:00
3:55 AM,39.2,35.6,87,30.04,10.0,SSE,12.7,-,0.03,,Overcast,150,2012-10-22 09:55:00
4:15 AM,39.2,35.6,87,30.05,10.0,SE,12.7,17.3,0.01,,Overcast,140,2012-10-22 10:15:00
4:35 AM,39.2,35.6,87,30.05,10.0,SE,11.5,-,0.01,,Overcast,130,2012-10-22 10:35:00
4:55 AM,39.2,35.6,87,30.03,10.0,SE,9.2,-,0.02,,Overcast,130,2012-10-22 10:55:00
5:15 AM,37.4,33.8,87,30.03,10.0,SE,10.4,-,N/A,,Overcast,130,2012-10-22 11:15:00
5:55 AM,39.2,33.8,81,30.04,10.0,East,5.8,-,N/A,,Overcast,90,2012-10-22 11:55:00
6:15 AM,39.2,35.6,87,30.03,10.0,East,5.8,-,N/A,,Overcast,80,2012-10-22 12:15:00
6:35 AM,39.2,35.6,87,30.04,10.0,ENE,4.6,-,N/A,,Mostly Cloudy,60,2012-10-22 12:35:00
6:55 AM,39.2,35.6,87,30.03,10.0,ENE,6.9,-,N/A,,Overcast,70,2012-10-22 12:55:00
7:15 AM,39.2,33.8,81,30.03,10.0,East,6.9,-,N/A,,Overcast,90,2012-10-22 13:15:00
7:55 AM,39.2,35.6,87,30.03,10.0,East,10.4,-,N/A,,Overcast,90,2012-10-22 13:55:00
8:15 AM,39.2,35.6,87,30.03,10.0,East,8.1,-,N/A,,Overcast,100,2012-10-22 14:15:00
8:35 AM,39.2,33.8,81,30.03,10.0,East,8.1,-,N/A,,Overcast,100,2012-10-22 14:35:00
8:55 AM,39.2,35.6,87,30.03,10.0,East,9.2,-,N/A,,Overcast,100,2012-10-22 14:55:00
9:15 AM,39.2,35.6,87,30.03,10.0,East,6.9,-,N/A,,Overcast,100,2012-10-22 15:15:00
9:35 AM,39.2,35.6,87,30.02,10.0,East,8.1,-,N/A,,Overcast,100,2012-10-22 15:35:00
9:55 AM,39.2,35.6,87,30.02,9.0,ESE,9.2,-,N/A,,Overcast,110,2012-10-22 15:55:00
10:15 AM,39.2,35.6,87,30.02,9.0,ESE,9.2,-,N/A,,Overcast,110,2012-10-22 16:15:00
10:35 AM,39.2,35.6,87,30.02,8.0,ESE,9.2,-,N/A,,Overcast,120,2012-10-22 16:35:00
10:55 AM,41.0,35.6,81,30.02,8.0,ESE,11.5,-,N/A,,Overcast,110,2012-10-22 16:55:00
11:15 AM,41.0,35.6,81,30.01,8.0,ESE,8.1,-,N/A,,Overcast,120,2012-10-22 17:15:00
11:35 AM,41.0,35.6,81,30.01,9.0,ESE,9.2,-,N/A,,Overcast,110,2012-10-22 17:35:00
11:55 AM,42.8,35.6,76,30.00,9.0,ESE,9.2,-,N/A,,Overcast,120,2012-10-22 17:55:00
12:15 PM,42.8,35.6,76,29.99,10.0,ESE,8.1,-,N/A,,Overcast,110,2012-10-22 18:15:00
12:35 PM,42.8,35.6,76,29.99,10.0,ESE,9.2,-,N/A,,Overcast,110,2012-10-22 18:35:00
1:15 PM,42.8,35.6,76,29.96,10.0,East,10.4,-,N/A,,Overcast,100,2012-10-22 19:15:00
1:35 PM,42.8,35.6,76,29.95,10.0,East,11.5,-,N/A,,Overcast,100,2012-10-22 19:35:00
1:55 PM,42.8,35.6,76,29.95,10.0,ESE,11.5,-,N/A,,Overcast,110,2012-10-22 19:55:00
2:15 PM,42.8,35.6,76,29.93,10.0,ESE,12.7,-,N/A,,Overcast,110,2012-10-22 20:15:00
2:35 PM,42.8,35.6,76,29.93,10.0,East,9.2,-,N/A,,Overcast,100,2012-10-22 20:35:00
2:55 PM,42.8,35.6,76,29.92,10.0,East,9.2,-,N/A,,Overcast,100,2012-10-22 20:55:00
3:15 PM,42.8,35.6,76,29.91,10.0,East,11.5,16.1,N/A,,Overcast,100,2012-10-22 21:15:00
3:35 PM,42.8,35.6,76,29.90,10.0,East,11.5,-,N/A,,Overcast,90,2012-10-22 21:35:00
3:55 PM,42.8,33.8,70,29.89,10.0,East,9.2,-,N/A,,Overcast,90,2012-10-22 21:55:00
4:15 PM,44.6,33.8,66,29.88,10.0,East,11.5,-,N/A,,Overcast,90,2012-10-22 22:15:00
4:35 PM,44.6,35.6,71,29.87,10.0,East,9.2,-,N/A,,Overcast,80,2012-10-22 22:35:00
4:55 PM,42.8,35.6,76,29.87,10.0,East,8.1,-,0.01,,Overcast,80,2012-10-22 22:55:00
5:15 PM,42.8,35.6,76,29.86,10.0,East,8.1,-,0.01,,Overcast,90,2012-10-22 23:15:00
5:35 PM,41.0,35.6,81,29.85,7.0,East,13.8,-,0.02,,Overcast,100,2012-10-22 23:35:00
5:55 PM,39.2,35.6,87,29.84,7.0,East,10.4,-,0.04,,Overcast,100,2012-10-22 23:55:00
6:15 PM,39.2,35.6,87,29.84,7.0,East,6.9,-,0.02,,Overcast,90,2012-10-23 00:15:00
6:35 PM,39.2,35.6,87,29.83,5.0,East,6.9,-,0.06,,Overcast,80,2012-10-23 00:35:00
6:55 PM,39.2,37.4,93,29.83,7.0,ENE,8.1,-,0.12,,Overcast,60,2012-10-23 00:55:00
7:15 PM,39.2,37.4,93,29.83,5.0,NE,8.1,-,0.08,,Overcast,50,2012-10-23 01:15:00
7:55 PM,39.2,35.6,87,29.81,4.0,ENE,8.1,-,0.18,,Overcast,70,2012-10-23 01:55:00
8:15 PM,39.2,37.4,93,29.80,4.0,NE,9.2,-,0.02,,Overcast,40,2012-10-23 02:15:00
8:35 PM,39.2,35.6,87,29.80,6.0,NE,9.2,-,0.04,,Overcast,50,2012-10-23 02:35:00
8:55 PM,39.2,35.6,87,29.78,5.0,NE,10.4,-,0.06,,Overcast,50,2012-10-23 02:55:00
9:55 PM,39.2,35.6,87,29.78,10.0,ENE,8.1,-,0.01,,Overcast,70,2012-10-23 03:55:00
10:15 PM,39.2,35.6,87,29.79,9.0,NE,5.8,-,N/A,,Overcast,40,2012-10-23 04:15:00
10:35 PM,39.2,35.6,87,29.79,10.0,ENE,6.9,-,N/A,,Overcast,60,2012-10-23 04:35:00
11:15 PM,39.2,35.6,87,29.75,10.0,East,10.4,-,N/A,,Overcast,80,2012-10-23 05:15:00
11:35 PM,39.2,35.6,87,29.74,7.0,ENE,9.2,-,N/A,,Overcast,70,2012-10-23 05:35:00
11:55 PM,39.2,35.6,87,29.73,5.0,ENE,10.4,-,N/A,,Overcast,70,2012-10-23 05:55:00